owner,sensor,date,latitude,longitude,vertical_datum,wind_speed,wind_to_direction,wind_speed_of_gust,qcFlag 
TCOON,ioos:station:TCOON:031:1,2009-07-01T00:00:00Z,28.4073,-96.7122,0.0,6.2,116.0,7.7,'11111222,11111222,11111222' 
TCOON,ioos:station:TCOON:031:1,2009-07-01T01:00:00Z,28.4073,-96.7122,0.0,5.9,108.0,7.2,'11111222,11111222,11111222' 
TCOON,ioos:station:TCOON:031:1,2009-07-01T03:00:00Z,28.4073,-96.7122,0.0,3.5,114.0,4.5,'11111222,11111222,11111222' 
TCOON,ioos:station:TCOON:031:1,2009-07-01T04:00:00Z,28.4073,-96.7122,0.0,1.1,57.0,2.7,'11111222,11111222,11111222' 
TCOON,ioos:station:TCOON:031:1,2009-07-01T05:00:00Z,28.4073,-96.7122,0.0,0.8,78.0,1.0,'11111222,11111222,11111222' 
TCOON,ioos:station:TCOON:031:1,2009-07-01T06:00:00Z,28.4073,-96.7122,0.0,2.5,104.0,3.2,'11111222,11111222,11111222' 
TCOON,ioos:station:TCOON:031:1,2009-07-01T07:00:00Z,28.4073,-96.7122,0.0,1.4,73.0,2.2,'11111222,11111222,11111222' 
TCOON,ioos:station:TCOON:031:1,2009-07-01T08:00:00Z,28.4073,-96.7122,0.0,4.2,134.0,4.5,'11111222,11111222,11111222' 
TCOON,ioos:station:TCOON:031:1,2009-07-01T09:00:00Z,28.4073,-96.7122,0.0,4.7,150.0,5.6,'11111222,11111222,11111222' 
TCOON,ioos:station:TCOON:031:1,2009-07-01T10:00:00Z,28.4073,-96.7122,0.0,3.3,226.0,3.7,'11111222,11111222,11111222' 
TCOON,ioos:station:TCOON:031:1,2009-07-01T11:00:00Z,28.4073,-96.7122,0.0,0.9,304.0,2.7,'11111222,11111222,11111222' 
TCOON,ioos:station:TCOON:031:1,2009-07-01T12:00:00Z,28.4073,-96.7122,0.0,2.5,5.0,3.1,'11111222,11111222,11111222' 
TCOON,ioos:station:TCOON:031:1,2009-07-01T13:00:00Z,28.4073,-96.7122,0.0,1.9,360.0,2.6,'11111222,11144222,11111222' 
TCOON,ioos:station:TCOON:031:1,2009-07-01T14:00:00Z,28.4073,-96.7122,0.0,1.3,160.0,1.8,'11111222,11111222,11111222' 
TCOON,ioos:station:TCOON:031:1,2009-07-01T15:00:00Z,28.4073,-96.7122,0.0,1.7,213.0,2.0,'11111222,11111222,11111222' 
TCOON,ioos:station:TCOON:031:1,2009-07-01T16:00:00Z,28.4073,-96.7122,0.0,2.2,205.0,2.9,'11111222,11111222,11111222' 
TCOON,ioos:station:TCOON:031:1,2009-07-01T17:00:00Z,28.4073,-96.7122,0.0,1.6,209.0,1.9,'11111222,11111222,11111222' 
TCOON,ioos:station:TCOON:031:1,2009-07-01T18:00:00Z,28.4073,-96.7122,0.0,3.9,190.0,4.1,'11111222,11111222,11111222' 
TCOON,ioos:station:TCOON:031:1,2009-07-01T19:00:00Z,28.4073,-96.7122,0.0,5.0,143.0,6.1,'11111222,11111222,11111222' 
TCOON,ioos:station:TCOON:031:1,2009-07-01T20:00:00Z,28.4073,-96.7122,0.0,6.0,141.0,7.0,'11111222,11111222,11111222' 
TCOON,ioos:station:TCOON:031:1,2009-07-01T21:00:00Z,28.4073,-96.7122,0.0,6.7,136.0,8.4,'11111222,11111222,11111222' 
TCOON,ioos:station:TCOON:031:1,2009-07-01T22:00:00Z,28.4073,-96.7122,0.0,6.9,129.0,8.8,'11111222,11111222,11111222' 
TCOON,ioos:station:TCOON:031:1,2009-07-01T23:00:00Z,28.4073,-96.7122,0.0,6.6,124.0,8.3,'11111222,11111222,11111222' 
TCOON,ioos:station:TCOON:031:1,2009-07-02T00:00:00Z,28.4073,-96.7122,0.0,6.5,121.0,7.8,'11111222,11111222,11111222' 
TCOON,ioos:station:TCOON:031:1,2009-07-02T01:00:00Z,28.4073,-96.7122,0.0,2.7,97.0,4.9,'11111222,11111222,11111222' 
TCOON,ioos:station:TCOON:031:1,2009-07-02T02:00:00Z,28.4073,-96.7122,0.0,2.6,132.0,3.1,'11111222,11111222,11111222' 
TCOON,ioos:station:TCOON:031:1,2009-07-02T03:00:00Z,28.4073,-96.7122,0.0,3.2,111.0,4.5,'11111222,11111222,11111222' 
TCOON,ioos:station:TCOON:031:1,2009-07-02T04:00:00Z,28.4073,-96.7122,0.0,3.5,116.0,4.2,'11111222,11111222,11111222' 
TCOON,ioos:station:TCOON:031:1,2009-07-02T05:00:00Z,28.4073,-96.7122,0.0,3.3,108.0,4.2,'11111222,11111222,11111222' 
TCOON,ioos:station:TCOON:031:1,2009-07-02T06:00:00Z,28.4073,-96.7122,0.0,3.4,111.0,4.0,'11111222,11111222,11111222' 
TCOON,ioos:station:TCOON:031:1,2009-07-02T07:00:00Z,28.4073,-96.7122,0.0,4.9,131.0,5.4,'11111222,11111222,11111222' 
TCOON,ioos:station:TCOON:031:1,2009-07-02T08:00:00Z,28.4073,-96.7122,0.0,5.3,133.0,6.9,'11111222,11111222,11111222' 
TCOON,ioos:station:TCOON:031:1,2009-07-02T09:00:00Z,28.4073,-96.7122,0.0,5.1,143.0,6.2,'11111222,11111222,11111222' 
TCOON,ioos:station:TCOON:031:1,2009-07-02T10:00:00Z,28.4073,-96.7122,0.0,4.3,149.0,4.9,'11111222,11111222,11111222' 
TCOON,ioos:station:TCOON:031:1,2009-07-02T11:00:00Z,28.4073,-96.7122,0.0,2.3,219.0,3.1,'11111222,11111222,11111222' 
TCOON,ioos:station:TCOON:031:1,2009-07-02T12:00:00Z,28.4073,-96.7122,0.0,1.2,277.0,1.4,'11111222,11111222,11111222' 
TCOON,ioos:station:TCOON:031:1,2009-07-02T13:00:00Z,28.4073,-96.7122,0.0,1.5,310.0,2.3,'11111222,11111222,11111222' 
TCOON,ioos:station:TCOON:031:1,2009-07-02T14:00:00Z,28.4073,-96.7122,0.0,0.3,325.0,1.2,'11111222,11111222,11111222' 
TCOON,ioos:station:TCOON:031:1,2009-07-02T15:00:00Z,28.4073,-96.7122,0.0,1.2,162.0,1.2,'11111222,11111222,11111222' 
TCOON,ioos:station:TCOON:031:1,2009-07-02T16:00:00Z,28.4073,-96.7122,0.0,2.4,172.0,2.8,'11111222,11111222,11111222' 
TCOON,ioos:station:TCOON:031:1,2009-07-02T17:00:00Z,28.4073,-96.7122,0.0,4.3,153.0,4.9,'11111222,11111222,11111222' 
TCOON,ioos:station:TCOON:031:1,2009-07-02T18:00:00Z,28.4073,-96.7122,0.0,1.8,66.0,3.6,'11111222,11111222,11111222' 
TCOON,ioos:station:TCOON:031:1,2009-07-02T19:00:00Z,28.4073,-96.7122,0.0,5.5,129.0,6.2,'11111222,11111222,11111222' 
TCOON,ioos:station:TCOON:031:1,2009-07-02T20:00:00Z,28.4073,-96.7122,0.0,4.6,117.0,6.1,'11111222,11111222,11111222' 
TCOON,ioos:station:TCOON:031:1,2009-07-02T21:00:00Z,28.4073,-96.7122,0.0,6.7,101.0,10.1,'11111222,11111222,11111222' 
TCOON,ioos:station:TCOON:031:1,2009-07-02T22:00:00Z,28.4073,-96.7122,0.0,6.7,116.0,8.9,'11111222,11111222,11111222' 
TCOON,ioos:station:TCOON:031:1,2009-07-02T23:00:00Z,28.4073,-96.7122,0.0,6.4,108.0,8.6,'11111222,11111222,11111222' 
TCOON,ioos:station:TCOON:031:1,2009-07-03T00:00:00Z,28.4073,-96.7122,0.0,5.1,109.0,6.8,'11111222,11111222,11111222' 
TCOON,ioos:station:TCOON:031:1,2009-07-03T01:00:00Z,28.4073,-96.7122,0.0,4.7,105.0,5.4,'11111222,11111222,11111222' 
TCOON,ioos:station:TCOON:031:1,2009-07-03T02:00:00Z,28.4073,-96.7122,0.0,3.8,102.0,5.0,'11111222,11111222,11111222' 
TCOON,ioos:station:TCOON:031:1,2009-07-03T03:00:00Z,28.4073,-96.7122,0.0,3.5,104.0,4.9,'11111222,11111222,11111222' 
TCOON,ioos:station:TCOON:031:1,2009-07-03T04:00:00Z,28.4073,-96.7122,0.0,3.6,107.0,5.1,'11111222,11111222,11111222' 
TCOON,ioos:station:TCOON:031:1,2009-07-03T05:00:00Z,28.4073,-96.7122,0.0,3.6,109.0,4.6,'11111222,11111222,11111222' 
TCOON,ioos:station:TCOON:031:1,2009-07-03T06:00:00Z,28.4073,-96.7122,0.0,2.0,78.0,2.6,'11111222,11111222,11111222' 
TCOON,ioos:station:TCOON:031:1,2009-07-03T07:00:00Z,28.4073,-96.7122,0.0,4.4,117.0,5.4,'11111222,11111222,11111222' 
TCOON,ioos:station:TCOON:031:1,2009-07-03T08:00:00Z,28.4073,-96.7122,0.0,3.4,111.0,3.9,'11111222,11111222,11111222' 
TCOON,ioos:station:TCOON:031:1,2009-07-03T09:00:00Z,28.4073,-96.7122,0.0,3.4,110.0,3.9,'11111222,11111222,11111222' 
TCOON,ioos:station:TCOON:031:1,2009-07-03T10:00:00Z,28.4073,-96.7122,0.0,2.6,110.0,3.0,'11111222,11111222,11111222' 
TCOON,ioos:station:TCOON:031:1,2009-07-03T11:00:00Z,28.4073,-96.7122,0.0,1.5,62.0,1.9,'11111222,11111222,11111222' 
TCOON,ioos:station:TCOON:031:1,2009-07-03T12:00:00Z,28.4073,-96.7122,0.0,1.6,67.0,1.9,'11111222,11111222,11111222' 
TCOON,ioos:station:TCOON:031:1,2009-07-03T13:00:00Z,28.4073,-96.7122,0.0,2.0,85.0,2.9,'11111222,11111222,11111222' 
TCOON,ioos:station:TCOON:031:1,2009-07-03T14:00:00Z,28.4073,-96.7122,0.0,4.0,138.0,4.7,'11111222,11111222,11111222' 
TCOON,ioos:station:TCOON:031:1,2009-07-03T15:00:00Z,28.4073,-96.7122,0.0,3.7,120.0,4.7,'11111222,11111222,11111222' 
TCOON,ioos:station:TCOON:031:1,2009-07-03T16:00:00Z,28.4073,-96.7122,0.0,4.0,140.0,4.7,'11111222,11111222,11111222' 
TCOON,ioos:station:TCOON:031:1,2009-07-03T17:00:00Z,28.4073,-96.7122,0.0,4.9,143.0,6.1,'11111222,11111222,11111222' 
TCOON,ioos:station:TCOON:031:1,2009-07-03T18:00:00Z,28.4073,-96.7122,0.0,6.8,133.0,8.3,'11111222,11111222,11111222' 
TCOON,ioos:station:TCOON:031:1,2009-07-03T19:00:00Z,28.4073,-96.7122,0.0,5.1,135.0,7.9,'11111222,11111222,11111222' 
TCOON,ioos:station:TCOON:031:1,2009-07-03T20:00:00Z,28.4073,-96.7122,0.0,5.4,149.0,6.0,'11111222,11111222,11111222' 
TCOON,ioos:station:TCOON:031:1,2009-07-03T21:00:00Z,28.4073,-96.7122,0.0,6.4,127.0,7.7,'11111222,11111222,11111222' 
TCOON,ioos:station:TCOON:031:1,2009-07-03T22:00:00Z,28.4073,-96.7122,0.0,6.1,137.0,6.7,'11111222,11111222,11111222' 
TCOON,ioos:station:TCOON:031:1,2009-07-03T23:00:00Z,28.4073,-96.7122,0.0,6.0,117.0,7.8,'11111222,11111222,11111222' 
TCOON,ioos:station:TCOON:031:1,2009-07-04T00:00:00Z,28.4073,-96.7122,0.0,6.5,106.0,8.4,'11111222,11111222,11111222' 
TCOON,ioos:station:TCOON:031:1,2009-07-04T01:00:00Z,28.4073,-96.7122,0.0,7.3,114.0,8.6,'11111222,11111222,11111222' 
TCOON,ioos:station:TCOON:031:1,2009-07-04T02:00:00Z,28.4073,-96.7122,0.0,6.6,111.0,7.8,'11111222,11111222,11111222' 
TCOON,ioos:station:TCOON:031:1,2009-07-04T03:00:00Z,28.4073,-96.7122,0.0,6.4,117.0,7.3,'11111222,11111222,11111222' 
TCOON,ioos:station:TCOON:031:1,2009-07-04T04:00:00Z,28.4073,-96.7122,0.0,6.0,116.0,7.6,'11111222,11111222,11111222' 
TCOON,ioos:station:TCOON:031:1,2009-07-04T05:00:00Z,28.4073,-96.7122,0.0,5.8,114.0,7.3,'11111222,11111222,11111222' 
TCOON,ioos:station:TCOON:031:1,2009-07-04T06:00:00Z,28.4073,-96.7122,0.0,5.5,117.0,7.2,'11111222,11111222,11111222' 
TCOON,ioos:station:TCOON:031:1,2009-07-04T07:00:00Z,28.4073,-96.7122,0.0,6.2,117.0,7.4,'11111222,11111222,11111222' 
TCOON,ioos:station:TCOON:031:1,2009-07-04T08:00:00Z,28.4073,-96.7122,0.0,6.7,116.0,7.6,'11111222,11111222,11111222' 
TCOON,ioos:station:TCOON:031:1,2009-07-04T09:00:00Z,28.4073,-96.7122,0.0,8.9,130.0,10.4,'11111222,11111222,11111222' 
TCOON,ioos:station:TCOON:031:1,2009-07-04T10:00:00Z,28.4073,-96.7122,0.0,9.3,143.0,10.7,'11111222,11111222,11111222' 
TCOON,ioos:station:TCOON:031:1,2009-07-04T11:00:00Z,28.4073,-96.7122,0.0,7.9,137.0,10.7,'11111222,11111222,11111222' 
TCOON,ioos:station:TCOON:031:1,2009-07-04T12:00:00Z,28.4073,-96.7122,0.0,8.0,140.0,9.3,'11111222,11111222,11111222' 
TCOON,ioos:station:TCOON:031:1,2009-07-04T13:00:00Z,28.4073,-96.7122,0.0,7.8,137.0,8.5,'11111222,11111222,11111222' 
TCOON,ioos:station:TCOON:031:1,2009-07-04T14:00:00Z,28.4073,-96.7122,0.0,8.4,160.0,9.1,'11111222,11111222,11111222' 
TCOON,ioos:station:TCOON:031:1,2009-07-04T15:00:00Z,28.4073,-96.7122,0.0,8.7,153.0,9.9,'11111222,11111222,11111222' 
TCOON,ioos:station:TCOON:031:1,2009-07-04T16:00:00Z,28.4073,-96.7122,0.0,9.0,152.0,10.6,'11111222,11111222,11111222' 
TCOON,ioos:station:TCOON:031:1,2009-07-04T17:00:00Z,28.4073,-96.7122,0.0,8.1,152.0,10.7,'11111222,11111222,11111222' 
TCOON,ioos:station:TCOON:031:1,2009-07-04T18:00:00Z,28.4073,-96.7122,0.0,7.9,136.0,9.0,'11111222,11111222,11111222' 
TCOON,ioos:station:TCOON:031:1,2009-07-04T19:00:00Z,28.4073,-96.7122,0.0,7.1,128.0,8.9,'11111222,11111222,11111222' 
TCOON,ioos:station:TCOON:031:1,2009-07-04T20:00:00Z,28.4073,-96.7122,0.0,6.9,115.0,8.4,'11111222,11111222,11111222' 
TCOON,ioos:station:TCOON:031:1,2009-07-04T21:00:00Z,28.4073,-96.7122,0.0,7.0,125.0,8.2,'11111222,11111222,11111222' 
TCOON,ioos:station:TCOON:031:1,2009-07-04T22:00:00Z,28.4073,-96.7122,0.0,8.3,109.0,9.3,'11111222,11111222,11111222' 
TCOON,ioos:station:TCOON:031:1,2009-07-04T23:00:00Z,28.4073,-96.7122,0.0,9.1,111.0,11.3,'11111222,11111222,11111222' 
TCOON,ioos:station:TCOON:031:1,2009-07-05T00:00:00Z,28.4073,-96.7122,0.0,11.3,120.0,13.5,'11111222,11111222,11111222' 
TCOON,ioos:station:TCOON:031:1,2009-07-05T01:00:00Z,28.4073,-96.7122,0.0,9.3,113.0,12.7,'11111222,11111222,11111222' 
TCOON,ioos:station:TCOON:031:1,2009-07-05T02:00:00Z,28.4073,-96.7122,0.0,9.5,115.0,11.5,'11111222,11111222,11111222' 
TCOON,ioos:station:TCOON:031:1,2009-07-05T03:00:00Z,28.4073,-96.7122,0.0,9.3,127.0,10.7,'11111222,11111222,11111222' 
TCOON,ioos:station:TCOON:031:1,2009-07-05T04:00:00Z,28.4073,-96.7122,0.0,8.2,120.0,9.4,'11111222,11111222,11111222' 
TCOON,ioos:station:TCOON:031:1,2009-07-05T05:00:00Z,28.4073,-96.7122,0.0,8.8,123.0,10.1,'11111222,11111222,11111222' 
TCOON,ioos:station:TCOON:031:1,2009-07-05T06:00:00Z,28.4073,-96.7122,0.0,10.5,142.0,12.4,'11111222,11111222,11111222' 
TCOON,ioos:station:TCOON:031:1,2009-07-05T07:00:00Z,28.4073,-96.7122,0.0,10.6,145.0,12.0,'11111222,11111222,11111222' 
TCOON,ioos:station:TCOON:031:1,2009-07-05T08:00:00Z,28.4073,-96.7122,0.0,11.2,139.0,12.7,'11111222,11111222,11111222' 
TCOON,ioos:station:TCOON:031:1,2009-07-05T09:00:00Z,28.4073,-96.7122,0.0,10.9,146.0,13.5,'11111222,11111222,11111222' 
TCOON,ioos:station:TCOON:031:1,2009-07-05T10:00:00Z,28.4073,-96.7122,0.0,10.5,145.0,12.1,'11111222,11111222,11111222' 
TCOON,ioos:station:TCOON:031:1,2009-07-05T11:00:00Z,28.4073,-96.7122,0.0,10.5,156.0,11.9,'11111222,11111222,11111222' 
TCOON,ioos:station:TCOON:031:1,2009-07-05T12:00:00Z,28.4073,-96.7122,0.0,10.4,150.0,11.6,'11111222,11111222,11111222' 
TCOON,ioos:station:TCOON:031:1,2009-07-05T13:00:00Z,28.4073,-96.7122,0.0,9.1,145.0,12.2,'11111222,11111222,11111222' 
TCOON,ioos:station:TCOON:031:1,2009-07-05T14:00:00Z,28.4073,-96.7122,0.0,9.3,155.0,11.2,'11111222,11111222,11111222' 
TCOON,ioos:station:TCOON:031:1,2009-07-05T15:00:00Z,28.4073,-96.7122,0.0,9.9,150.0,12.6,'11111222,11111222,11111222' 
TCOON,ioos:station:TCOON:031:1,2009-07-05T16:00:00Z,28.4073,-96.7122,0.0,9.4,143.0,11.9,'11111222,11111222,11111222' 
TCOON,ioos:station:TCOON:031:1,2009-07-05T17:00:00Z,28.4073,-96.7122,0.0,7.8,131.0,9.7,'11111222,11111222,11111222' 
TCOON,ioos:station:TCOON:031:1,2009-07-05T18:00:00Z,28.4073,-96.7122,0.0,7.4,117.0,8.4,'11111222,11111222,11111222' 
TCOON,ioos:station:TCOON:031:1,2009-07-05T19:00:00Z,28.4073,-96.7122,0.0,9.3,110.0,11.0,'11111222,11111222,11111222' 
TCOON,ioos:station:TCOON:031:1,2009-07-05T20:00:00Z,28.4073,-96.7122,0.0,9.8,113.0,11.7,'11111222,11111222,11111222' 
TCOON,ioos:station:TCOON:031:1,2009-07-05T21:00:00Z,28.4073,-96.7122,0.0,10.1,119.0,13.2,'11111222,11111222,11111222' 
TCOON,ioos:station:TCOON:031:1,2009-07-05T22:00:00Z,28.4073,-96.7122,0.0,9.7,116.0,11.4,'11111222,11111222,11111222' 
TCOON,ioos:station:TCOON:031:1,2009-07-05T23:00:00Z,28.4073,-96.7122,0.0,10.2,105.0,11.8,'11111222,11111222,11111222' 
TCOON,ioos:station:TCOON:031:1,2009-07-06T00:00:00Z,28.4073,-96.7122,0.0,11.1,119.0,13.3,'11111222,11111222,11111222' 
TCOON,ioos:station:TCOON:031:1,2009-07-06T01:00:00Z,28.4073,-96.7122,0.0,10.3,117.0,12.5,'11111222,11111222,11111222' 
TCOON,ioos:station:TCOON:031:1,2009-07-06T02:00:00Z,28.4073,-96.7122,0.0,10.1,114.0,12.2,'11111222,11111222,11111222' 
TCOON,ioos:station:TCOON:031:1,2009-07-06T03:00:00Z,28.4073,-96.7122,0.0,9.3,118.0,10.3,'11111222,11111222,11111222' 
TCOON,ioos:station:TCOON:031:1,2009-07-06T04:00:00Z,28.4073,-96.7122,0.0,9.2,122.0,10.4,'11111222,11111222,11111222' 
TCOON,ioos:station:TCOON:031:1,2009-07-06T05:00:00Z,28.4073,-96.7122,0.0,9.3,123.0,10.5,'11111222,11111222,11111222' 
TCOON,ioos:station:TCOON:031:1,2009-07-06T06:00:00Z,28.4073,-96.7122,0.0,10.2,130.0,11.1,'11111222,11111222,11111222' 
TCOON,ioos:station:TCOON:031:1,2009-07-06T07:00:00Z,28.4073,-96.7122,0.0,7.7,137.0,9.9,'11111222,11111222,11111222' 
TCOON,ioos:station:TCOON:031:1,2009-07-06T08:00:00Z,28.4073,-96.7122,0.0,9.1,137.0,10.9,'11111222,11111222,11111222' 
TCOON,ioos:station:TCOON:031:1,2009-07-06T09:00:00Z,28.4073,-96.7122,0.0,8.9,137.0,10.7,'11111222,11111222,11111222' 
TCOON,ioos:station:TCOON:031:1,2009-07-06T10:00:00Z,28.4073,-96.7122,0.0,8.2,131.0,9.4,'11111222,11111222,11111222' 
TCOON,ioos:station:TCOON:031:1,2009-07-06T11:00:00Z,28.4073,-96.7122,0.0,8.2,144.0,10.3,'11111222,11111222,11111222' 
TCOON,ioos:station:TCOON:031:1,2009-07-06T12:00:00Z,28.4073,-96.7122,0.0,7.0,135.0,9.0,'11111222,11111222,11111222' 
TCOON,ioos:station:TCOON:031:1,2009-07-06T13:00:00Z,28.4073,-96.7122,0.0,8.4,137.0,9.7,'11111222,11111222,11111222' 
TCOON,ioos:station:TCOON:031:1,2009-07-06T14:00:00Z,28.4073,-96.7122,0.0,7.6,128.0,9.0,'11111222,11111222,11111222' 
TCOON,ioos:station:TCOON:031:1,2009-07-06T15:00:00Z,28.4073,-96.7122,0.0,7.9,143.0,9.1,'11111222,11111222,11111222' 
TCOON,ioos:station:TCOON:031:1,2009-07-06T16:00:00Z,28.4073,-96.7122,0.0,5.1,148.0,5.8,'11111222,11111222,11111222' 
TCOON,ioos:station:TCOON:031:1,2009-07-06T17:00:00Z,28.4073,-96.7122,0.0,5.1,122.0,6.5,'11111222,11111222,11111222' 
TCOON,ioos:station:TCOON:031:1,2009-07-06T18:00:00Z,28.4073,-96.7122,0.0,6.9,121.0,7.8,'11111222,11111222,11111222' 
TCOON,ioos:station:TCOON:031:1,2009-07-06T19:00:00Z,28.4073,-96.7122,0.0,7.2,118.0,8.3,'11111222,11111222,11111222' 
TCOON,ioos:station:TCOON:031:1,2009-07-06T20:00:00Z,28.4073,-96.7122,0.0,7.5,116.0,8.6,'11111222,11111222,11111222' 
TCOON,ioos:station:TCOON:031:1,2009-07-06T21:00:00Z,28.4073,-96.7122,0.0,8.0,130.0,10.1,'11111222,11111222,11111222' 
TCOON,ioos:station:TCOON:031:1,2009-07-06T22:00:00Z,28.4073,-96.7122,0.0,8.0,126.0,9.2,'11111222,11111222,11111222' 
TCOON,ioos:station:TCOON:031:1,2009-07-06T23:00:00Z,28.4073,-96.7122,0.0,8.3,125.0,9.5,'11111222,11111222,11111222' 
TCOON,ioos:station:TCOON:031:1,2009-07-07T00:00:00Z,28.4073,-96.7122,0.0,7.6,104.0,9.8,'11111222,11111222,11111222' 
TCOON,ioos:station:TCOON:031:1,2009-07-07T01:00:00Z,28.4073,-96.7122,0.0,9.1,119.0,10.5,'11111222,11111222,11111222' 
TCOON,ioos:station:TCOON:031:1,2009-07-07T02:00:00Z,28.4073,-96.7122,0.0,8.5,114.0,9.6,'11111222,11111222,11111222' 
TCOON,ioos:station:TCOON:031:1,2009-07-07T03:00:00Z,28.4073,-96.7122,0.0,6.5,116.0,8.5,'11111222,11111222,11111222' 
TCOON,ioos:station:TCOON:031:1,2009-07-07T04:00:00Z,28.4073,-96.7122,0.0,8.2,122.0,10.1,'11111222,11111222,11111222' 
TCOON,ioos:station:TCOON:031:1,2009-07-07T05:00:00Z,28.4073,-96.7122,0.0,8.0,139.0,9.1,'11111222,11111222,11111222' 
TCOON,ioos:station:TCOON:031:1,2009-07-07T06:00:00Z,28.4073,-96.7122,0.0,7.2,135.0,9.1,'11111222,11111222,11111222' 
TCOON,ioos:station:TCOON:031:1,2009-07-07T07:00:00Z,28.4073,-96.7122,0.0,9.0,138.0,10.3,'11111222,11111222,11111222' 
TCOON,ioos:station:TCOON:031:1,2009-07-07T08:00:00Z,28.4073,-96.7122,0.0,7.0,152.0,9.5,'11111222,11111222,11111222' 
TCOON,ioos:station:TCOON:031:1,2009-07-07T09:00:00Z,28.4073,-96.7122,0.0,7.9,146.0,9.4,'11111222,11111222,11111222' 
TCOON,ioos:station:TCOON:031:1,2009-07-07T10:00:00Z,28.4073,-96.7122,0.0,7.1,152.0,8.1,'11111222,11111222,11111222' 
TCOON,ioos:station:TCOON:031:1,2009-07-07T11:00:00Z,28.4073,-96.7122,0.0,6.2,144.0,7.6,'11111222,11111222,11111222' 
TCOON,ioos:station:TCOON:031:1,2009-07-07T12:00:00Z,28.4073,-96.7122,0.0,7.6,141.0,8.6,'11111222,11111222,11111222' 
TCOON,ioos:station:TCOON:031:1,2009-07-07T13:00:00Z,28.4073,-96.7122,0.0,4.8,162.0,6.3,'11111222,11111222,11111222' 
TCOON,ioos:station:TCOON:031:1,2009-07-07T14:00:00Z,28.4073,-96.7122,0.0,3.5,273.0,4.0,'11111222,11111222,11111222' 
TCOON,ioos:station:TCOON:031:1,2009-07-07T15:00:00Z,28.4073,-96.7122,0.0,3.8,88.0,4.2,'11111222,11111222,11111222' 
TCOON,ioos:station:TCOON:031:1,2009-07-07T16:00:00Z,28.4073,-96.7122,0.0,4.8,104.0,5.7,'11111222,11111222,11111222' 
TCOON,ioos:station:TCOON:031:1,2009-07-07T17:00:00Z,28.4073,-96.7122,0.0,5.3,115.0,6.2,'11111222,11111222,11111222' 
TCOON,ioos:station:TCOON:031:1,2009-07-07T18:00:00Z,28.4073,-96.7122,0.0,7.0,122.0,7.9,'11111222,11111222,11111222' 
TCOON,ioos:station:TCOON:031:1,2009-07-07T19:00:00Z,28.4073,-96.7122,0.0,8.1,106.0,9.3,'11111222,11111222,11111222' 
TCOON,ioos:station:TCOON:031:1,2009-07-07T20:00:00Z,28.4073,-96.7122,0.0,6.4,121.0,9.2,'11111222,11111222,11111222' 
TCOON,ioos:station:TCOON:031:1,2009-07-07T21:00:00Z,28.4073,-96.7122,0.0,5.0,118.0,7.0,'11111222,11111222,11111222' 
TCOON,ioos:station:TCOON:031:1,2009-07-07T22:00:00Z,28.4073,-96.7122,0.0,5.7,128.0,7.1,'11111222,11111222,11111222' 
TCOON,ioos:station:TCOON:031:1,2009-07-07T23:00:00Z,28.4073,-96.7122,0.0,5.8,129.0,6.7,'11111222,11111222,11111222' 
TCOON,ioos:station:TCOON:031:1,2009-07-08T00:00:00Z,28.4073,-96.7122,0.0,8.1,124.0,9.3,'11111222,11111222,11111222' 
TCOON,ioos:station:TCOON:031:1,2009-07-08T01:00:00Z,28.4073,-96.7122,0.0,6.4,125.0,8.0,'11111222,11111222,11111222' 
TCOON,ioos:station:TCOON:031:1,2009-07-08T02:00:00Z,28.4073,-96.7122,0.0,5.0,108.0,6.9,'11111222,11111222,11111222' 
TCOON,ioos:station:TCOON:031:1,2009-07-08T03:00:00Z,28.4073,-96.7122,0.0,5.0,110.0,6.6,'11111222,11111222,11111222' 
TCOON,ioos:station:TCOON:031:1,2009-07-08T04:00:00Z,28.4073,-96.7122,0.0,4.3,107.0,6.0,'11111222,11111222,11111222' 
TCOON,ioos:station:TCOON:031:1,2009-07-08T05:00:00Z,28.4073,-96.7122,0.0,5.2,116.0,6.0,'11111222,11111222,11111222' 
TCOON,ioos:station:TCOON:031:1,2009-07-08T06:00:00Z,28.4073,-96.7122,0.0,6.5,129.0,8.7,'11111222,11111222,11111222' 
TCOON,ioos:station:TCOON:031:1,2009-07-08T07:00:00Z,28.4073,-96.7122,0.0,6.8,135.0,8.8,'11111222,11111222,11111222' 
TCOON,ioos:station:TCOON:031:1,2009-07-08T08:00:00Z,28.4073,-96.7122,0.0,8.5,143.0,10.2,'11111222,11111222,11111222' 
TCOON,ioos:station:TCOON:031:1,2009-07-08T09:00:00Z,28.4073,-96.7122,0.0,7.3,141.0,9.4,'11111222,11111222,11111222' 
TCOON,ioos:station:TCOON:031:1,2009-07-08T10:00:00Z,28.4073,-96.7122,0.0,6.7,141.0,8.1,'11111222,11111222,11111222' 
TCOON,ioos:station:TCOON:031:1,2009-07-08T11:00:00Z,28.4073,-96.7122,0.0,6.5,138.0,8.6,'11111222,11111222,11111222' 
TCOON,ioos:station:TCOON:031:1,2009-07-08T12:00:00Z,28.4073,-96.7122,0.0,6.0,140.0,7.7,'11111222,11111222,11111222' 
TCOON,ioos:station:TCOON:031:1,2009-07-08T13:00:00Z,28.4073,-96.7122,0.0,5.8,148.0,7.1,'11111222,11111222,11111222' 
TCOON,ioos:station:TCOON:031:1,2009-07-08T14:00:00Z,28.4073,-96.7122,0.0,6.3,134.0,7.4,'11111222,11111222,11111222' 
TCOON,ioos:station:TCOON:031:1,2009-07-08T15:00:00Z,28.4073,-96.7122,0.0,5.8,137.0,6.7,'11111222,11111222,11111222' 
TCOON,ioos:station:TCOON:031:1,2009-07-08T16:00:00Z,28.4073,-96.7122,0.0,6.4,136.0,7.3,'11111222,11111222,11111222' 
TCOON,ioos:station:TCOON:031:1,2009-07-08T17:00:00Z,28.4073,-96.7122,0.0,7.3,128.0,8.7,'11111222,11111222,11111222' 
TCOON,ioos:station:TCOON:031:1,2009-07-08T18:00:00Z,28.4073,-96.7122,0.0,7.4,129.0,8.6,'11111222,11111222,11111222' 
TCOON,ioos:station:TCOON:031:1,2009-07-08T19:00:00Z,28.4073,-96.7122,0.0,7.7,130.0,9.0,'11111222,11111222,11111222' 
TCOON,ioos:station:TCOON:031:1,2009-07-08T20:00:00Z,28.4073,-96.7122,0.0,7.9,131.0,10.1,'11111222,11111222,11111222' 
TCOON,ioos:station:TCOON:031:1,2009-07-08T21:00:00Z,28.4073,-96.7122,0.0,8.3,126.0,9.7,'11111222,11111222,11111222' 
TCOON,ioos:station:TCOON:031:1,2009-07-08T22:00:00Z,28.4073,-96.7122,0.0,8.8,133.0,10.5,'11111222,11111222,11111222' 
TCOON,ioos:station:TCOON:031:1,2009-07-08T23:00:00Z,28.4073,-96.7122,0.0,9.2,130.0,10.6,'11111222,11111222,11111222' 
TCOON,ioos:station:TCOON:031:1,2009-07-09T00:00:00Z,28.4073,-96.7122,0.0,8.5,119.0,10.7,'11111222,11111222,11111222' 
TCOON,ioos:station:TCOON:031:1,2009-07-09T01:00:00Z,28.4073,-96.7122,0.0,7.5,121.0,8.8,'11111222,11111222,11111222' 
TCOON,ioos:station:TCOON:031:1,2009-07-09T02:00:00Z,28.4073,-96.7122,0.0,6.1,114.0,8.8,'11111222,11111222,11111222' 
TCOON,ioos:station:TCOON:031:1,2009-07-09T03:00:00Z,28.4073,-96.7122,0.0,6.9,126.0,9.4,'11111222,11111222,11111222' 
TCOON,ioos:station:TCOON:031:1,2009-07-09T04:00:00Z,28.4073,-96.7122,0.0,6.2,116.0,8.1,'11111222,11111222,11111222' 
TCOON,ioos:station:TCOON:031:1,2009-07-09T05:00:00Z,28.4073,-96.7122,0.0,8.3,128.0,9.2,'11111222,11111222,11111222' 
TCOON,ioos:station:TCOON:031:1,2009-07-09T06:00:00Z,28.4073,-96.7122,0.0,8.8,141.0,9.6,'11111222,11111222,11111222' 
TCOON,ioos:station:TCOON:031:1,2009-07-09T07:00:00Z,28.4073,-96.7122,0.0,8.4,135.0,9.5,'11111222,11111222,11111222' 
TCOON,ioos:station:TCOON:031:1,2009-07-09T08:00:00Z,28.4073,-96.7122,0.0,8.1,130.0,9.8,'11111222,11111222,11111222' 
TCOON,ioos:station:TCOON:031:1,2009-07-09T09:00:00Z,28.4073,-96.7122,0.0,7.5,131.0,8.3,'11111222,11111222,11111222' 
TCOON,ioos:station:TCOON:031:1,2009-07-09T10:00:00Z,28.4073,-96.7122,0.0,5.3,134.0,6.3,'11111222,11111222,11111222' 
TCOON,ioos:station:TCOON:031:1,2009-07-09T11:00:00Z,28.4073,-96.7122,0.0,6.7,138.0,7.6,'11111222,11111222,11111222' 